Location: Bartshausen
(51.8454°N, 9.8167°E)
Time: 01:42:01
(UTC+00:00)

Lacrosse 5 rocket - Pass Details

Date: 08 November 2025
Orbit: 406 x 492 km, 57.0° (Epoch: 13 December)

Event Time Altitude Azimuth Distance (km) Brightness Sun altitude
Exits shadow 03:43:59 27° 45° (NE) 870 2.8 -25.4°
Drops below altitude 10° 03:45:43 10° 58° (ENE) 1,521 4.4 -25.1°
Sets 03:47:49 0° 63° (ENE) 2,374 5.7 -24.8°
